Location: Newark
(25.0000°N, 73.5000°E)
Time: 21:46:56
(UTC+00:00)

Transit 2A Rocket - Pass Details

Date: 05 August 2021
Orbit: 586 x 916 km, 66.7° (Epoch: 16 September)

Event Time Altitude Azimuth Distance (km) Brightness Sun altitude
Rises 16:26:24 0° 358° (N) 3,378 8.9 -31.9°
Reaches altitude 10° 16:29:36 10° 16° (NNE) 2,495 7.9 -32.5°
Enters shadow 16:31:19 15° 32° (NNE) 2,169 7.4 -32.8°
